TimeCDT,TemperatureF,Dew PointF,Humidity,Sea Level PressureIn,VisibilityMPH,Wind Direction,Wind SpeedMPH,Gust SpeedMPH,PrecipitationIn,Events,Conditions,WindDirDegrees,DateUTC
12:15 AM,74.5,53.4,48,29.81,10.0,SSE,20.7,-,N/A,,Unknown,160,2013-09-27 05:15:00
12:35 AM,73.6,53.6,50,29.82,10.0,SSE,17.3,-,N/A,,Unknown,160,2013-09-27 05:35:00
12:55 AM,73.4,53.6,50,29.82,10.0,South,20.7,-,N/A,,Unknown,170,2013-09-27 05:55:00
1:15 AM,73.4,54.0,50,29.82,10.0,South,19.6,26.5,N/A,,Unknown,170,2013-09-27 06:15:00
1:35 AM,72.7,54.0,52,29.82,10.0,South,19.6,26.5,N/A,,Unknown,170,2013-09-27 06:35:00
1:55 AM,72.9,54.1,52,29.82,10.0,South,23.0,27.6,N/A,,Unknown,170,2013-09-27 06:55:00
2:15 AM,72.7,54.3,52,29.83,10.0,South,21.9,28.8,N/A,,Unknown,170,2013-09-27 07:15:00
2:35 AM,72.5,54.3,53,29.83,10.0,South,24.2,-,N/A,,Unknown,170,2013-09-27 07:35:00
2:55 AM,72.1,54.5,54,29.85,10.0,South,19.6,-,N/A,,Unknown,170,2013-09-27 07:55:00
3:15 AM,71.8,54.5,54,29.84,10.0,South,19.6,-,N/A,,Unknown,170,2013-09-27 08:15:00
3:35 AM,71.4,54.5,55,29.84,10.0,South,18.4,23.0,N/A,,Unknown,180,2013-09-27 08:35:00
3:55 AM,70.7,54.5,56,29.84,10.0,South,17.3,23.0,N/A,,Unknown,180,2013-09-27 08:55:00
4:15 AM,70.5,54.5,57,29.84,10.0,South,15.0,-,N/A,,Unknown,170,2013-09-27 09:15:00
4:35 AM,69.8,54.5,58,29.83,10.0,South,17.3,-,N/A,,Unknown,170,2013-09-27 09:35:00
4:55 AM,70.5,54.5,57,29.83,10.0,South,19.6,-,N/A,,Unknown,180,2013-09-27 09:55:00
5:15 AM,69.3,54.7,60,29.83,10.0,South,17.3,-,N/A,,Unknown,170,2013-09-27 10:15:00
5:35 AM,68.4,54.7,62,29.84,10.0,South,11.5,-,N/A,,Unknown,170,2013-09-27 10:35:00
5:55 AM,67.3,54.5,63,29.84,10.0,South,10.4,-,N/A,,Unknown,170,2013-09-27 10:55:00
6:15 AM,67.1,54.7,64,29.84,10.0,SSE,10.4,-,N/A,,Unknown,160,2013-09-27 11:15:00
6:35 AM,66.4,54.7,66,29.85,10.0,South,10.4,-,N/A,,Unknown,170,2013-09-27 11:35:00
6:55 AM,66.6,54.7,66,29.85,10.0,South,11.5,-,N/A,,Unknown,170,2013-09-27 11:55:00
7:15 AM,66.0,54.5,66,29.85,10.0,South,12.7,-,N/A,,Unknown,170,2013-09-27 12:15:00
7:35 AM,65.7,54.5,67,29.85,10.0,South,12.7,-,N/A,,Unknown,170,2013-09-27 12:35:00
7:55 AM,65.8,54.3,66,29.86,10.0,South,13.8,-,N/A,,Unknown,170,2013-09-27 12:55:00
8:15 AM,66.2,54.1,65,29.86,10.0,South,16.1,-,N/A,,Unknown,170,2013-09-27 13:15:00
8:35 AM,67.6,54.5,63,29.86,10.0,SSE,15.0,-,N/A,,Unknown,160,2013-09-27 13:35:00
8:55 AM,69.1,54.7,60,29.85,10.0,South,17.3,-,N/A,,Unknown,170,2013-09-27 13:55:00
9:15 AM,70.7,55.2,58,29.85,10.0,South,21.9,-,N/A,,Unknown,170,2013-09-27 14:15:00
9:35 AM,71.6,55.6,57,29.85,10.0,South,20.7,-,N/A,,Unknown,180,2013-09-27 14:35:00
9:55 AM,73.8,56.8,55,29.84,10.0,South,25.3,29.9,N/A,,Unknown,180,2013-09-27 14:55:00
10:15 AM,74.7,57.0,54,29.84,10.0,South,27.6,33.4,N/A,,Unknown,170,2013-09-27 15:15:00
10:35 AM,75.7,57.7,53,29.85,10.0,South,26.5,33.4,N/A,,Unknown,190,2013-09-27 15:35:00
10:55 AM,77.0,58.3,52,29.85,10.0,South,27.6,33.4,N/A,,Unknown,190,2013-09-27 15:55:00
11:15 AM,77.9,59.0,52,29.85,10.0,South,25.3,29.9,N/A,,Unknown,180,2013-09-27 16:15:00
11:35 AM,79.0,59.5,51,29.85,10.0,South,23.0,28.8,N/A,,Unknown,190,2013-09-27 16:35:00
11:55 AM,79.9,59.9,50,29.85,10.0,South,25.3,-,N/A,,Unknown,190,2013-09-27 16:55:00
12:15 PM,80.4,59.9,49,29.85,10.0,SSW,25.3,36.8,N/A,,Unknown,200,2013-09-27 17:15:00
12:35 PM,81.0,60.3,49,29.84,10.0,South,24.2,28.8,N/A,,Unknown,180,2013-09-27 17:35:00
12:55 PM,82.0,60.1,47,29.83,10.0,South,26.5,36.8,N/A,,Unknown,180,2013-09-27 17:55:00
1:15 PM,82.9,60.4,46,29.83,10.0,South,25.3,33.4,N/A,,Unknown,180,2013-09-27 18:15:00
1:35 PM,83.7,60.1,45,29.82,10.0,South,20.7,31.1,N/A,,Unknown,180,2013-09-27 18:35:00
1:55 PM,84.0,60.1,44,29.81,10.0,South,23.0,32.2,N/A,,Unknown,180,2013-09-27 18:55:00
2:15 PM,84.2,59.9,44,29.80,10.0,South,23.0,31.1,N/A,,Unknown,180,2013-09-27 19:15:00
2:35 PM,84.6,60.3,44,29.79,10.0,South,23.0,33.4,N/A,,Unknown,180,2013-09-27 19:35:00
2:55 PM,84.4,60.3,44,29.78,10.0,South,21.9,32.2,N/A,,Unknown,170,2013-09-27 19:55:00
3:15 PM,83.8,61.0,46,29.78,10.0,SSE,24.2,29.9,N/A,,Unknown,160,2013-09-27 20:15:00
3:35 PM,85.5,61.0,44,29.78,10.0,South,27.6,34.5,N/A,,Unknown,180,2013-09-27 20:35:00
3:55 PM,84.4,60.6,45,29.78,10.0,South,24.2,31.1,N/A,,Unknown,170,2013-09-27 20:55:00
4:15 PM,83.5,61.2,47,29.77,10.0,South,24.2,29.9,N/A,,Unknown,170,2013-09-27 21:15:00
4:35 PM,82.9,61.0,47,29.77,10.0,South,26.5,32.2,N/A,,Unknown,170,2013-09-27 21:35:00
4:55 PM,81.9,61.3,50,29.76,10.0,SSE,24.2,32.2,N/A,,Unknown,160,2013-09-27 21:55:00
5:15 PM,83.3,62.2,49,29.76,10.0,SSE,28.8,32.2,N/A,,Unknown,150,2013-09-27 22:15:00
5:35 PM,82.9,61.9,49,29.75,10.0,SSE,27.6,33.4,N/A,,Unknown,150,2013-09-27 22:35:00
5:55 PM,82.0,61.7,50,29.73,10.0,SE,25.3,32.2,N/A,,Unknown,140,2013-09-27 22:55:00
6:15 PM,80.2,62.1,54,29.72,10.0,SE,26.5,33.4,N/A,,Unknown,140,2013-09-27 23:15:00
6:35 PM,79.7,62.2,55,29.73,10.0,SSE,21.9,27.6,N/A,,Unknown,150,2013-09-27 23:35:00
6:55 PM,79.2,62.4,56,29.73,10.0,SSE,25.3,33.4,N/A,,Unknown,150,2013-09-27 23:55:00
7:15 PM,77.4,64.4,64,29.75,10.0,South,20.7,27.6,N/A,,Unknown,170,2013-09-28 00:15:00
7:35 PM,66.6,65.5,96,29.76,0.2,SSE,19.6,46.0,0.73,,Unknown,160,2013-09-28 00:35:00
7:55 PM,67.3,66.2,96,29.78,7.0,South,12.7,16.1,0.80,,Unknown,180,2013-09-28 00:55:00
8:15 PM,68.4,67.3,96,29.77,10.0,SE,13.8,18.4,N/A,,Unknown,130,2013-09-28 01:15:00
8:35 PM,67.6,66.4,96,29.77,10.0,ESE,9.2,-,N/A,,Unknown,120,2013-09-28 01:35:00
8:55 PM,69.8,66.2,88,29.78,10.0,SSE,8.1,-,N/A,,Unknown,150,2013-09-28 01:55:00
9:15 PM,69.8,66.6,89,29.78,10.0,SSE,8.1,-,0.01,,Unknown,160,2013-09-28 02:15:00
9:35 PM,72.1,66.9,84,29.77,10.0,SSE,23.0,28.8,0.01,,Unknown,150,2013-09-28 02:35:00
9:55 PM,70.9,64.8,81,29.78,10.0,South,21.9,27.6,0.01,,Unknown,170,2013-09-28 02:55:00
10:15 PM,69.4,64.0,83,29.78,10.0,South,20.7,26.5,N/A,,Unknown,170,2013-09-28 03:15:00
10:35 PM,68.5,63.5,84,29.78,10.0,South,16.1,-,N/A,,Unknown,170,2013-09-28 03:35:00
10:55 PM,68.2,63.5,85,29.78,10.0,SSE,23.0,-,N/A,,Unknown,160,2013-09-28 03:55:00
11:15 PM,66.6,64.4,93,29.79,4.0,SSE,24.2,-,0.04,,Unknown,160,2013-09-28 04:15:00
11:35 PM,67.6,65.5,93,29.80,10.0,SSE,19.6,24.2,0.04,,Unknown,160,2013-09-28 04:35:00
11:55 PM,68.0,66.2,94,29.75,10.0,SSE,19.6,26.5,0.04,,Unknown,150,2013-09-28 04:55:00